Lapse_Rate
5.3 5.2 6.0 6.1 6.6 6.5 6.5 6.5 6.5 6.5 6.5 7.5 7.7 7.1 6.6 7.2 6.6 6.5 7.4 6.3 7.4 7.7 7.4 6.7 6.1 6.3 5.9 5.3 5.3 5.6 5.9 6.2 6.4 6.2 6.0 6.1 6.1 6.4 6.6 6.8 6.8 7.2 6.5 6.8 6.9 7.0 7.1 6.9 6.8
5.5 5.8 6.6 6.3 6.5 6.5 6.5 6.5 6.5 6.5 7.2 7.8 7.7 7.6 7.0 6.5 8.0 7.0 7.2 6.6 7.6 7.4 8.1 7.4 6.2 6.1 5.6 5.5 5.9 6.2 6.2 6.4 6.2 6.2 6.1 6.1 6.4 6.5 6.8 7.0 7.0 7.1 7.2 7.1 7.1 6.9 6.7 6.5 6.4
6.3 6.6 7.1 6.5 6.5 6.5 6.5 6.5 6.5 6.9 7.6 7.5 7.1 7.9 7.6 7.1 8.0 8.4 7.4 7.2 7.5 7.1 7.5 6.4 5.5 5.5 5.7 5.9 6.0 6.2 6.3 6.4 6.4 6.3 6.0 6.2 6.4 6.5 7.0 7.2 6.9 6.7 6.8 6.8 7.1 7.0 7.0 6.9 6.8
6.7 6.9 6.5 6.5 6.5 6.5 6.5 6.6 6.8 7.0 7.4 7.7 7.6 6.7 8.0 8.8 8.5 6.5 7.2 7.3 7.8 7.1 7.3 5.6 5.7 5.7 6.1 6.1 6.3 6.1 6.2 6.3 6.3 6.2 6.4 6.4 6.7 6.8 6.9 7.1 6.8 6.8 6.9 6.8 7.0 7.3 7.2 6.9 6.7
7.1 6.0 6.5 6.5 6.5 6.5 6.5 7.0 7.1 6.5 6.9 7.3 7.5 6.7 7.5 7.8 7.3 7.3 7.1 7.8 7.5 7.4 7.0 7.1 6.1 6.1 6.2 6.4 6.2 6.3 6.4 6.3 6.3 6.2 6.3 6.5 6.8 6.9 6.9 7.1 6.9 7.0 7.0 7.1 7.2 7.3 7.2 7.0 6.7
6.4 6.5 6.5 6.5 6.5 6.5 6.7 7.2 7.2 6.9 7.2 7.4 7.3 7.3 7.4 7.6 7.0 6.9 7.5 7.6 7.3 7.1 7.5 7.2 6.4 6.4 6.5 6.5 6.3 6.5 6.3 6.5 6.3 6.4 6.4 6.6 6.8 6.9 6.9 7.2 6.9 7.0 7.0 7.2 7.0 7.1 7.0 6.9 6.6
6.6 6.5 6.5 6.5 6.5 6.5 6.5 7.4 6.8 6.9 7.0 7.0 8.0 6.6 6.9 7.1 6.5 7.0 7.6 7.6 7.1 7.3 7.5 7.3 7.0 6.7 6.5 6.4 6.3 6.3 6.4 6.4 6.4 6.5 6.5 6.9 6.6 6.7 7.0 7.2 7.0 7.0 7.1 6.8 6.8 6.8 6.7 6.9 6.7
7.2 6.6 6.5 6.5 6.5 6.5 6.8 7.2 7.5 7.2 6.8 8.3 8.4 6.7 6.9 7.0 6.6 7.2 7.6 7.2 7.3 7.5 7.9 7.9 7.2 7.3 7.0 7.0 6.5 6.6 6.6 6.5 6.5 6.5 6.5 6.7 6.9 6.9 6.8 6.9 6.5 6.4 6.6 6.6 6.6 6.6 6.6 6.7 6.7
6.2 6.5 6.5 6.5 6.4 6.5 7.2 6.5 7.6 8.1 7.6 7.9 8.0 8.2 8.5 6.9 7.4 8.0 7.2 7.2 7.5 7.1 7.1 7.0 7.4 7.0 6.8 7.0 6.8 6.9 6.6 6.4 6.2 5.9 5.7 6.2 7.1 8.5 9.1 6.5 6.5 6.6 6.7 6.6 6.6 6.6 6.6 6.6 6.7
6.8 6.5 6.5 6.6 6.6 6.5 7.0 7.0 7.2 7.1 7.2 7.4 7.7 8.1 7.5 8.0 8.5 8.3 6.9 5.8 8.7 7.1 6.9 7.5 7.2 7.4 7.5 7.4 6.2 5.9 6.8 6.7 6.3 6.2 6.1 6.4 6.1 6.8 7.3 6.3 6.1 5.9 6.0 6.2 5.9 6.2 5.8 6.2 7.5
6.8 6.5 6.5 6.8 7.0 7.2 7.0 7.0 7.5 7.1 6.5 7.4 7.4 7.9 8.2 8.4 8.5 8.4 8.5 7.3 8.0 7.3 7.1 7.2 6.5 6.3 7.1 6.3 6.2 6.6 6.7 6.9 6.2 5.9 6.2 5.8 6.4 6.3 6.6 6.7 7.1 6.8 5.4 6.9 6.8 7.0 7.0 6.7 6.9
6.5 6.8 6.9 6.8 7.3 7.1 6.7 7.4 7.0 7.1 7.2 8.1 8.0 7.5 8.1 8.2 8.3 8.3 8.5 8.2 7.0 7.1 7.1 7.0 6.4 5.9 6.4 6.5 7.3 6.5 6.8 7.0 7.1 6.3 5.9 6.4 7.3 6.9 6.7 7.1 6.6 6.4 6.6 6.1 6.2 7.0 6.0 6.3 6.2
6.6 6.7 7.0 7.0 7.3 7.0 7.3 6.9 6.9 7.1 7.8 8.3 8.2 8.1 8.3 8.4 8.3 7.6 8.3 7.6 7.4 7.3 6.8 6.8 6.0 6.0 6.2 6.8 7.0 7.1 7.2 7.4 6.9 6.5 6.0 6.6 7.2 6.9 6.8 6.1 6.7 6.4 6.4 6.7 6.5 6.4 6.8 6.5 7.2
7.0 6.8 6.9 7.1 7.0 6.2 6.6 6.8 7.1 7.4 7.9 8.0 8.1 8.1 8.3 8.2 8.2 7.4 7.2 7.5 7.3 7.2 6.6 6.7 6.6 6.2 6.7 7.0 6.4 6.8 6.9 6.7 6.7 6.5 6.3 5.6 6.6 6.5 6.9 6.8 6.8 6.3 6.6 6.2 6.0 6.2 7.2 7.8 8.1
7.2 6.5 6.5 6.8 6.9 6.7 6.7 6.5 6.5 7.7 8.0 7.8 7.9 8.1 8.3 8.4 8.5 7.2 7.5 7.4 7.3 7.1 6.7 6.7 6.8 6.6 6.7 6.7 6.4 6.7 6.9 7.0 7.0 6.6 5.7 5.8 6.2 5.9 5.7 6.7 6.7 6.6 5.8 5.9 6.2 6.9 7.3 8.4 8.5
6.5 6.5 6.5 6.5 6.7 6.9 6.7 6.5 6.6 7.4 7.6 7.6 7.8 8.1 8.1 8.3 8.5 8.0 7.4 7.7 7.5 7.1 6.5 6.7 8.0 7.4 6.8 6.7 6.4 6.9 6.6 7.1 7.1 6.6 6.2 6.0 5.9 6.0 6.3 6.9 6.8 6.3 6.2 6.9 7.4 7.6 8.0 7.9 8.2
6.5 6.5 6.5 6.5 6.7 6.5 6.5 6.5 6.1 6.7 7.5 7.4 7.7 8.0 8.1 8.2 8.4 8.5 7.6 7.4 7.8 7.3 6.7 6.6 7.0 7.0 6.9 6.2 6.4 6.6 6.2 7.1 7.1 7.0 6.6 5.8 6.1 5.9 6.4 7.0 6.8 6.0 6.9 7.3 7.6 7.5 7.2 8.0 8.0
6.5 6.5 6.5 6.5 6.5 6.5 6.5 6.5 6.6 7.0 7.1 7.2 7.1 7.9 8.0 8.1 8.2 8.5 8.0 7.6 7.8 7.4 6.9 6.8 6.9 6.6 6.4 6.2 5.8 6.4 7.0 7.0 6.9 6.8 6.9 6.1 6.3 6.1 6.2 6.8 6.5 6.2 7.6 7.7 7.4 6.9 7.1 7.2 7.1
6.5 6.5 6.5 6.5 6.5 6.5 6.5 6.5 6.5 7.1 7.0 6.3 7.2 7.7 7.9 8.1 8.3 8.8 8.6 7.6 7.4 7.4 7.0 6.8 6.7 6.4 6.4 6.5 6.7 7.0 7.8 7.5 7.6 7.1 6.4 6.4 6.4 6.4 6.9 7.1 6.6 6.7 7.4 6.6 6.8 7.4 7.0 7.7 6.7
6.5 6.5 6.5 6.5 6.6 6.5 6.5 6.5 6.5 6.8 7.0 6.6 7.0 7.5 7.6 7.8 8.4 8.4 8.7 7.5 7.7 7.0 6.8 6.5 6.6 6.2 6.0 6.6 6.3 7.0 6.8 7.4 7.7 6.5 6.6 6.6 6.6 6.4 6.6 6.5 7.0 6.7 7.4 6.6 6.6 6.5 7.7 7.0 6.1
6.5 6.5 6.5 6.5 6.5 6.5 6.5 6.5 6.5 6.6 6.9 7.2 6.3 7.1 7.8 7.8 8.1 8.3 8.0 8.0 7.5 7.1 6.5 6.3 6.4 6.0 5.7 6.1 6.2 6.1 6.3 6.8 7.1 7.2 7.7 7.1 6.8 6.7 6.4 6.1 6.9 6.6 6.9 7.7 6.7 6.7 6.7 7.7 6.6
6.5 6.5 6.5 6.5 6.5 6.5 6.5 6.5 6.5 6.5 6.5 6.6 6.6 7.0 7.8 8.1 8.4 8.4 8.3 7.1 7.4 6.8 6.6 6.3 6.5 6.0 5.8 5.6 6.7 6.3 7.4 7.2 7.9 7.5 7.5 7.1 6.8 7.0 7.4 6.7 6.2 6.2 7.1 6.8 7.0 7.0 6.8 7.3 7.4
6.5 6.5 6.5 6.5 6.5 6.5 6.5 6.5 6.5 6.5 6.5 6.5 6.9 7.3 7.8 8.2 8.4 8.4 8.4 6.8 7.7 7.0 6.4 6.4 6.3 5.9 6.1 5.6 6.9 6.9 7.1 7.8 7.2 7.0 6.7 7.1 6.4 7.1 7.6 6.8 6.0 6.3 7.2 6.4 6.6 6.6 6.5 7.2 7.6
6.5 6.5 6.5 6.5 6.5 6.5 6.5 6.5 6.5 6.5 6.5 6.5 6.7 7.1 7.5 8.0 8.3 8.5 8.6 8.1 7.4 7.0 6.4 6.3 5.7 5.7 6.2 5.9 6.1 6.5 6.7 6.6 6.9 7.0 7.6 7.6 7.5 7.6 6.8 6.7 6.2 6.1 6.6 6.7 7.0 6.4 6.6 6.9 6.7
6.5 6.5 6.5 6.5 6.5 6.5 6.5 6.6 6.5 6.5 6.5 6.6 6.7 7.2 7.1 7.9 8.1 8.3 8.0 6.2 8.3 6.1 6.4 6.2 5.7 5.5 6.1 6.4 6.4 6.4 6.3 6.4 6.6 6.7 7.5 7.3 6.6 7.2 7.1 6.6 6.4 6.9 6.2 6.5 6.1 6.1 6.5 6.7 7.3
6.5 6.4 6.5 6.5 6.5 6.5 6.5 6.5 6.5 6.5 7.0 7.3 7.3 7.6 7.7 7.8 7.8 8.2 8.4 5.6 6.5 5.4 6.0 6.2 5.9 5.5 5.8 6.2 6.1 6.1 6.5 7.5 7.0 6.6 7.2 7.6 7.7 8.4 7.1 7.1 6.7 6.4 6.1 6.4 6.1 7.1 7.5 6.7 7.1
6.5 6.5 6.5 6.5 6.5 6.5 6.5 6.5 6.5 6.5 6.5 7.0 7.2 7.4 7.4 7.7 7.7 5.6 8.1 7.6 8.1 4.3 5.2 5.9 6.0 6.1 5.8 6.4 6.4 6.1 6.2 6.2 6.9 6.4 6.2 7.0 6.2 7.0 6.8 6.7 6.8 7.1 6.5 6.3 6.1 7.7 7.2 7.1 6.9
6.5 6.5 6.5 6.5 6.5 6.5 6.5 6.5 6.5 6.5 6.5 6.5 6.7 7.2 7.4 7.7 7.8 7.6 5.0 5.0 4.4 4.7 3.8 5.6 6.6 6.2 6.3 6.3 6.7 6.9 6.7 6.3 6.4 6.5 6.4 6.0 5.9 5.8 6.1 6.3 6.6 6.3 6.1 6.8 6.4 7.0 6.6 6.4 7.4
6.5 6.5 6.5 6.5 6.5 6.5 6.5 6.5 6.5 6.5 6.5 6.5 6.8 7.3 7.4 7.6 7.4 7.9 6.0 4.3 3.2 5.1 4.1 5.3 5.8 5.4 6.6 6.1 6.2 6.6 6.9 6.9 6.6 6.6 6.5 6.5 6.2 6.0 6.0 5.6 5.7 6.1 6.4 6.6 6.6 6.6 6.9 6.9 6.9
6.5 6.5 6.5 6.5 6.5 6.4 6.5 6.5 6.5 6.5 6.8 6.9 7.0 7.3 7.7 7.9 7.9 6.6 6.8 6.1 3.9 3.6 4.5 5.6 6.2 4.8 6.5 6.4 5.1 6.5 7.3 7.2 7.1 6.5 7.1 6.6 6.8 6.3 6.1 5.8 6.0 6.2 5.9 6.4 6.5 6.9 7.2 7.0 7.3
Wind_Speed
8 5 1 1 1 1 3 4 2 13 11 7 13 4 5 6 2 7 9 7 15 13 13 11 10 9 10 10 9 9 8 9 10 11 12 12 12 13 14 15 16 16 17 17 17 18 17 16 16
8 2 0 1 2 4 3 3 10 12 14 18 6 11 2 5 5 11 10 12 16 15 13 12 11 11 10 9 9 7 8 9 9 10 11 11 11 12 13 16 16 16 16 15 15 14 15 16 15
7 2 1 2 2 3 3 6 11 11 16 15 7 6 3 3 10 8 12 16 17 14 13 13 11 11 10 10 9 9 8 9 8 8 10 10 12 14 13 15 17 15 15 13 13 11 10 13 12
3 1 2 2 2 2 3 5 11 20 15 5 12 8 6 4 7 7 15 17 14 14 12 12 11 11 8 10 10 10 9 10 10 9 9 10 13 14 15 14 15 15 14 13 12 11 9 8 7
1 0 2 2 1 0 6 8 12 20 10 11 4 6 10 4 10 16 15 13 13 12 12 12 10 10 9 10 10 10 10 9 9 9 9 10 14 14 15 15 15 14 13 13 12 13 14 12 12
2 1 2 4 4 2 5 6 15 12 9 11 12 13 6 9 16 13 13 13 13 11 12 10 10 10 9 10 11 10 10 10 10 10 10 11 14 14 14 17 15 13 12 12 13 13 11 10 9
3 2 4 5 8 5 3 5 7 9 11 6 14 11 6 12 12 13 13 11 13 12 11 11 11 11 11 10 11 12 12 10 10 10 9 12 14 13 14 16 14 13 12 12 11 9 10 7 9
1 2 4 5 8 5 4 4 9 8 7 10 14 8 11 12 14 14 13 11 10 10 10 10 11 11 10 10 10 12 11 11 10 11 10 13 14 14 14 15 13 11 10 9 7 7 8 8 8
3 2 3 6 7 4 9 6 6 7 13 8 3 16 17 17 17 15 13 11 10 8 7 8 10 9 11 11 11 12 12 13 12 12 13 13 12 13 14 13 12 10 8 6 5 5 6 7 7
3 1 2 4 5 10 9 10 9 8 11 11 17 18 18 18 18 17 14 12 12 10 8 7 8 8 9 11 9 9 10 10 9 10 10 11 11 11 12 13 13 11 9 7 5 5 4 3 2
1 1 6 10 4 4 13 12 7 15 8 12 23 22 19 18 16 14 13 12 12 11 7 8 8 7 8 8 8 7 8 8 9 9 8 9 10 10 9 9 9 7 7 5 4 3 3 4 4
3 2 6 2 4 4 12 11 12 4 2 15 21 22 20 18 16 14 13 11 11 11 10 9 9 8 8 9 8 9 8 8 8 7 7 7 8 7 7 6 5 6 5 4 4 4 4 4 4
5 4 12 9 4 2 9 9 12 5 15 18 19 19 18 16 14 12 10 10 10 10 9 9 9 8 8 8 8 8 7 7 6 6 5 5 6 6 5 5 6 5 4 4 4 4 5 4 3
3 7 10 5 8 3 6 7 9 6 19 18 18 17 16 15 14 12 11 10 10 9 9 9 9 9 9 8 7 6 6 6 5 5 6 5 5 4 4 4 5 4 3 3 2 3 5 5 5
6 10 12 5 11 6 6 3 5 12 18 19 17 15 14 13 13 12 11 11 11 9 9 9 9 9 9 7 6 5 4 6 5 5 6 3 3 4 4 5 4 5 3 2 2 3 4 4 3
7 4 7 8 10 11 8 8 7 7 17 19 17 14 14 13 13 12 11 10 10 10 10 9 8 9 8 7 5 5 3 5 6 6 6 3 3 2 3 3 4 3 3 4 4 4 3 3 3
1 3 5 8 9 5 5 1 8 10 14 16 16 14 13 13 12 11 12 11 11 11 10 10 9 9 8 7 4 3 3 4 4 5 4 3 3 4 2 3 4 3 3 4 4 3 3 3 3
4 2 3 9 7 13 12 14 17 13 11 15 15 15 14 14 17 15 13 12 12 11 11 10 8 7 7 6 5 3 3 4 4 4 4 4 3 2 1 4 3 3 3 3 3 3 2 3 4
3 8 8 12 10 7 4 6 20 18 11 13 15 15 14 16 14 13 14 13 12 12 12 11 10 8 6 6 5 3 4 3 3 4 4 3 2 2 1 3 3 2 3 4 3 2 3 4 5
6 8 6 9 8 4 6 6 9 18 18 13 13 15 15 13 15 14 15 14 14 14 13 12 11 9 8 7 5 2 4 3 3 4 3 4 4 3 1 3 2 3 3 3 3 3 2 3 5
3 1 5 6 6 7 11 2 4 16 11 14 8 9 15 16 17 16 17 16 15 14 14 12 12 10 8 8 5 4 5 5 3 3 3 4 4 3 2 2 2 2 2 2 2 3 3 3 3
3 3 8 15 8 3 6 4 13 15 18 14 15 16 12 17 18 17 18 17 17 15 13 12 11 9 8 9 7 8 6 4 4 4 4 5 5 5 5 5 4 2 2 2 2 2 3 3 4
2 5 10 8 4 1 7 4 3 18 15 21 19 22 21 13 18 20 20 19 17 15 14 12 11 10 8 10 8 7 6 4 4 4 6 4 5 5 7 6 6 4 3 2 1 1 3 4 4
6 8 9 4 3 3 3 6 8 12 24 19 19 18 22 19 16 19 17 15 15 14 13 13 13 11 10 9 10 9 9 7 5 6 5 4 3 4 5 5 5 4 4 3 3 2 1 3 3
6 8 3 2 4 3 2 6 6 8 10 18 23 24 19 22 16 15 15 13 16 17 15 13 14 13 12 11 10 10 8 7 6 6 5 5 4 3 4 6 6 5 4 3 4 3 1 1 1
11 12 5 6 4 3 2 5 1 3 6 9 17 21 18 19 15 16 18 14 16 15 16 14 14 14 13 12 11 9 7 5 4 5 4 4 4 4 4 5 4 5 5 4 4 3 3 2 1
5 8 1 2 1 4 2 3 5 3 3 11 18 17 18 18 17 13 17 16 17 13 15 16 13 12 11 13 10 8 6 6 5 5 3 3 3 4 4 4 6 6 6 5 5 4 4 3 3
6 10 9 4 7 8 3 4 3 5 6 11 17 20 18 18 17 15 13 14 10 8 4 8 12 13 12 12 11 9 8 7 5 4 4 2 1 3 4 5 5 4 6 6 7 4 5 5 4
6 6 2 6 4 10 7 4 1 6 9 12 13 15 17 17 17 17 15 11 11 8 5 4 7 8 12 12 11 11 10 8 6 5 4 4 4 3 4 4 5 4 6 6 6 6 6 6 6
2 5 12 8 10 5 7 5 1 3 7 9 10 10 13 15 15 13 16 14 13 11 5 3 7 7 10 9 8 11 9 8 8 7 5 4 4 4 3 4 4 4 4 6 7 7 7 7 6
Wind_Direction
142 143 173 213 178 90 72 77 94 128 142 146 153 162 123 43 32 105 130 139 140 140 144 145 143 128 107 89 91 98 96 105 104 95 90 89 91 97 98 102 100 98 102 94 91 91 90 90 86
153 135 45 12 53 96 74 102 128 149 141 144 142 129 58 75 69 119 130 146 138 136 139 130 121 110 107 108 106 121 109 105 103 100 98 97 101 105 104 107 102 103 98 96 95 94 94 89 90
152 347 25 42 66 95 109 117 138 134 137 148 124 71 55 62 115 126 130 140 135 128 130 123 123 123 127 129 128 108 119 107 106 110 108 106 107 107 106 109 104 104 101 96 90 85 90 93 87
166 144 95 89 132 66 65 124 137 130 133 140 130 81 84 91 123 135 139 136 129 130 128 127 129 130 132 139 123 121 106 111 108 116 113 119 108 112 106 108 107 105 100 90 85 79 93 102 95
122 10 76 84 195 317 129 103 147 146 141 133 135 91 108 52 115 136 139 139 133 128 128 127 128 116 112 117 128 122 119 118 111 116 116 114 104 99 104 107 107 110 98 85 78 85 83 83 87
57 52 102 184 187 143 125 110 139 149 131 126 109 110 90 127 133 141 141 136 132 130 129 120 116 112 107 107 117 121 118 114 113 107 112 110 106 100 100 110 109 108 98 84 88 84 76 87 94
120 139 185 188 158 156 125 126 159 131 131 115 135 113 114 142 139 143 139 133 134 127 127 124 116 113 106 110 104 99 107 106 110 104 99 100 103 98 90 96 103 104 101 89 85 69 63 82 96
274 222 146 157 164 153 141 126 131 125 92 110 138 141 156 154 145 139 134 135 130 130 124 119 118 114 108 106 99 97 100 101 92 95 85 94 96 96 90 98 96 103 99 95 84 70 60 77 109
160 214 167 131 136 162 149 127 64 107 130 69 91 137 135 144 147 142 137 140 141 132 128 117 118 113 109 108 98 106 99 92 90 85 87 94 93 92 93 87 99 99 99 100 91 66 56 72 115
225 236 141 108 150 158 157 135 127 134 122 97 105 113 135 149 155 154 154 153 156 148 138 134 126 123 109 107 103 96 100 95 94 91 90 98 98 92 89 89 89 78 71 65 48 50 54 12 41
250 259 148 154 161 144 143 130 127 140 153 161 144 141 149 158 162 161 160 162 155 154 151 146 130 128 116 113 112 111 112 112 100 97 95 96 96 93 92 97 90 73 56 48 32 5 344 328 315
280 159 134 111 192 113 147 127 133 112 125 154 145 147 154 164 164 166 166 163 154 162 154 144 138 140 127 129 121 117 120 122 119 102 100 107 107 97 90 76 76 71 55 45 30 3 343 327 297
237 173 145 199 178 55 145 139 137 101 125 139 142 149 159 163 162 162 166 164 162 166 158 152 149 148 142 134 133 129 126 130 123 119 109 112 109 100 89 79 79 59 55 41 21 355 12 12 28
294 170 126 165 193 75 100 113 144 127 140 145 155 158 164 165 166 163 168 169 174 167 162 155 155 151 151 143 141 138 138 131 129 124 124 115 111 97 72 80 77 76 75 66 25 354 17 34 57
195 125 133 169 151 142 92 67 88 142 161 155 165 165 167 169 171 173 172 171 171 169 162 163 157 156 160 152 154 153 155 145 151 133 139 114 125 104 88 83 71 71 72 89 68 62 59 56 63
185 167 154 164 141 142 145 183 213 156 167 167 170 173 174 180 183 176 174 170 165 161 170 166 164 161 165 154 162 147 134 133 138 152 159 181 179 139 103 94 71 57 53 33 47 39 68 55 23
232 212 167 137 165 125 103 97 207 189 189 176 174 178 181 183 193 192 181 178 173 172 171 176 172 173 168 158 159 158 135 136 148 161 150 125 140 136 93 102 78 45 85 50 31 49 12 17 22
169 148 142 129 169 112 153 223 181 191 202 196 176 182 187 192 198 193 192 186 180 179 179 183 184 182 170 157 150 145 149 130 140 149 159 143 143 151 134 111 79 48 113 91 61 32 30 16 355
111 127 156 102 126 88 91 148 162 183 202 203 182 188 195 202 200 195 193 190 183 183 185 190 185 185 178 171 172 168 176 158 150 159 171 163 161 165 327 123 110 81 77 52 43 24 36 38 5
113 120 84 87 119 106 127 98 184 177 188 187 190 196 201 206 197 199 197 192 190 188 193 191 195 194 203 195 175 171 171 174 169 172 178 174 190 180 168 124 136 97 86 65 47 39 37 44 25
151 148 151 127 131 84 130 82 211 200 204 186 200 219 206 198 201 195 197 198 194 195 193 197 193 196 199 187 156 131 133 130 171 179 204 200 179 192 209 118 107 106 112 93 37 35 31 66 64
184 186 130 140 168 131 208 167 216 202 203 190 196 218 209 207 208 203 198 198 198 199 193 194 194 191 190 178 179 174 172 166 181 178 200 197 194 192 192 180 178 181 174 113 57 56 46 21 52
67 145 129 149 87 193 199 247 139 186 202 208 199 204 211 209 205 206 205 202 196 191 191 189 191 191 194 189 194 179 168 162 156 171 196 196 176 198 179 172 171 191 189 161 163 173 93 74 45
158 92 99 94 33 255 231 236 172 182 214 205 205 196 204 208 207 210 206 201 187 187 189 187 190 199 199 198 201 200 181 175 181 187 187 194 192 190 188 168 174 202 193 185 180 158 108 85 80
206 180 129 64 214 259 288 199 268 198 200 209 194 200 200 200 209 204 189 188 187 187 190 191 194 203 200 204 206 213 196 184 202 196 200 189 191 200 201 197 182 184 180 171 178 186 179 113 71
196 204 212 203 202 207 175 218 211 239 259 234 197 198 190 199 202 198 196 181 186 181 188 196 198 205 200 203 211 215 203 194 202 198 196 225 225 209 189 212 209 187 182 181 188 205 220 190 210
167 208 262 201 113 237 179 251 237 261 239 185 182 184 181 192 187 184 189 189 187 174 185 197 198 208 202 206 206 218 214 208 202 181 205 237 231 210 205 207 216 200 200 191 197 217 219 218 220
222 171 198 212 199 222 204 264 236 200 194 181 182 184 183 185 187 175 174 168 152 157 144 194 204 207 206 204 208 209 214 211 206 189 192 235 221 220 207 217 218 220 210 215 203 206 203 215 223
178 195 199 231 241 224 222 225 113 179 190 196 189 185 178 180 183 180 174 164 150 166 141 232 212 206 208 202 203 213 208 203 199 219 196 191 200 196 217 212 210 228 233 215 208 215 221 224 216
289 246 221 222 197 239 269 227 71 193 180 195 184 178 179 180 179 177 176 172 164 138 106 250 216 209 224 212 199 212 211 208 214 215 225 217 213 186 225 213 213 219 214 207 219 221 223 226 231